Location: Lake Almanor
(40.2485°N, 121.1442°W)
Time: 00:05:25
(UTC-08:00)

STARLINK-1109 - Pass Details

Date: 29 January 2020
Orbit: 348 x 351 km, 53.0° (Epoch: 23 February)

Event Time Altitude Azimuth Distance (km) Brightness Sun altitude
Rises 19:01:18 0° 314° (NW) 2,159 7.2 -19.6°
Reaches altitude 10° 19:03:24 10° 323° (NW) 1,313 5.9 -20.0°
Enters shadow 19:04:42 22° 339° (NNW) 840 4.7 -20.2°
